Location: Neuvy Saint Sepulchre
(46.5953°N, 1.8122°E)
Time: 21:24:52
(UTC+02:00)

N. Korean satellite - Visible Passes

Search period start: 19 October 2021 00:00
Search period end: 29 October 2021 00:00
Orbit: 450 x 495 km, 97.3° (Epoch: 19 October)

Date Brightness Start Highest point End Pass type
(mag) Time Alt. Az. Time Alt. Az. Time Alt. Az.
19 Oct 8.1 06:48:16 10° NNE 06:51:45 39° E 06:55:10 10° SSE visible
20 Oct 9.5 06:20:50 10° NE 06:23:31 19° E 06:26:11 10° SE visible
21 Oct 6.5 07:25:11 10° N 07:28:51 71° WNW 07:32:29 10° SSW visible
21 Oct 10.7 19:38:24 10° W 19:38:53 10° W 19:39:22 10° W visible
22 Oct 7.6 06:57:10 10° NNE 07:00:46 50° E 07:04:19 10° S visible
23 Oct 9.1 06:29:32 10° NE 06:32:33 24° E 06:35:33 10° SSE visible
24 Oct 10.1 06:02:52 10° ENE 06:04:14 12° E 06:05:34 10° ESE visible
24 Oct 6.7 07:34:11 10° N 07:37:47 55° WNW 07:41:20 10° SSW visible
25 Oct 7.0 07:06:03 10° NNE 07:09:42 66° E 07:13:18 10° S visible
25 Oct 9.9 19:17:05 10° SW 19:19:30 17° W 19:21:57 10° NW visible
26 Oct 8.7 06:38:15 10° NNE 06:41:30 30° E 06:44:42 10° SSE visible
27 Oct 9.9 06:11:04 10° NE 06:13:10 15° E 06:15:15 10° SE visible
27 Oct 6.9 07:43:08 10° N 07:46:36 42° WNW 07:50:02 10° SW visible
28 Oct 6.6 07:14:52 10° NNE 07:18:33 86° ESE 07:22:09 10° SSW visible
28 Oct 10.1 19:26:29 10° WSW 19:28:24 14° W 19:30:19 10° WNW visible
